Flag for Lithuania Weather past 2 weeks in Vilnius, Lithuania

Now
57 °F

Partly cloudy.


Feels Like: 56 °F
Forecast: 52 / 65 °F
Wind: 7 mph from West

Location: Vilnius Airport

Current Time: Aug 1, 2015 at 12:27:45 AM

Latest Report: Jul 31, 2015 at 11:50 PM


Visibility: 4 mi

Pressure: 29.95 "Hg

Humidity: 88%

Dew point: 54 °F

Location of VilniusLocation

Historic Weather in Vilnius — Graph

°F

Vilnius temperature yesterday

Maximum temperature yesterday: 66 °F (at 1:50 PM)
Minimum temperature yesterday: 55 °F (at 1:20 AM)
Average temperature yesterday: 59 °F

Past Weeks' High & Low Weather Summary

 TemperatureHumidityPressure
High79 °F (Jul 25, 4:50 PM)100% (Jul 17, 4:20 AM)30.04 "Hg (Jul 17, 4:20 AM)
Low45 °F (Jul 17, 3:50 AM)31% (Jul 19, 12:50 PM)29.47 "Hg (Jul 20, 5:20 AM)
Average62 °F71%29.83 "Hg
* Reported Jul 16 11:20 PM — Jul 31 11:20 PM, Vilnius, Weather by CustomWeather, © 2015

Note: Actual official high and low records may vary slightly from our data, if they occured in-between our weather recording intervals... More about our weather records

Advertising

Vilnius weather history for previous 24 hours

 ConditionsComfort  
Time TempWeatherWind HumidityBarometerVisibility
11:20 PM
Fri, Jul 31
57 °FPassing clouds.9 mph88%29.95 "Hg5 mi
10:50 PM57 °FPartly cloudy.7 mph88%29.95 "Hg5 mi
10:20 PM57 °FBroken clouds.5 mph94%29.92 "Hg4 mi
9:50 PM59 °FSprinkles. Broken clouds.3 mph94%29.92 "Hg4 mi
9:20 PM57 °FScattered showers. Broken clouds.1 mph94%29.92 "Hg4 mi
8:50 PM57 °FRain showers. Mostly cloudy.2 mph94%29.92 "Hg2 mi
8:20 PM57 °FScattered showers. Broken clouds.3 mph94%29.92 "Hg5 mi
7:50 PM59 °FScattered showers. Broken clouds.1 mph82%29.92 "Hg5 mi
7:20 PM57 °FSprinkles. Broken clouds.6 mph88%29.89 "Hg4 mi
7:02 PM57 °FRain showers. Partly sunny.9 mph94%29.89 "Hg2 mi
6:20 PM64 °FScattered showers. Broken clouds.13 mph64%29.89 "Hg4 mi
5:50 PM66 °FScattered showers. Broken clouds.13 mph60%29.89 "HgN/A
5:20 PM64 °FScattered showers. Broken clouds.13 mph60%29.89 "HgN/A
4:50 PM64 °FScattered showers. Broken clouds.17 mph60%29.89 "HgN/A
4:20 PM64 °FScattered showers. Broken clouds.15 mph64%29.89 "HgN/A
3:50 PM66 °FScattered showers. Broken clouds.14 mph60%29.86 "HgN/A
3:20 PM64 °FPartly sunny.13 mph64%29.89 "HgN/A
2:50 PM64 °FBroken clouds.12 mph60%29.89 "HgN/A
2:20 PM64 °FBroken clouds.12 mph60%29.86 "HgN/A
1:50 PM66 °FBroken clouds.12 mph60%29.86 "HgN/A
1:20 PM63 °FBroken clouds.12 mph68%29.86 "HgN/A
12:50 PM61 °FScattered showers. Broken clouds.13 mph72%29.86 "HgN/A
12:20 PM61 °FScattered showers. Broken clouds.15 mph72%29.86 "HgN/A
11:50 AM61 °FBroken clouds.13 mph68%29.86 "HgN/A
11:20 AM63 °FBroken clouds.13 mph64%29.86 "HgN/A
10:20 AM61 °FPartly sunny.13 mph72%29.83 "HgN/A
9:50 AM59 °FPartly sunny.12 mph72%29.83 "HgN/A
9:20 AM59 °FPartly sunny.12 mph72%29.83 "HgN/A
8:50 AM57 °FPartly sunny.12 mph77%29.83 "HgN/A
8:20 AM57 °FPartly sunny.10 mph82%29.83 "HgN/A
7:50 AM57 °FPartly sunny.9 mph77%29.83 "HgN/A
7:20 AM55 °FPartly sunny.10 mph82%29.83 "HgN/A
6:50 AM55 °FPartly sunny.10 mph82%29.80 "HgN/A
6:20 AM55 °FPassing clouds.9 mph82%29.80 "HgN/A
5:50 AM55 °FOvercast.13 mph82%29.80 "HgN/A
5:20 AM55 °FOvercast.13 mph82%29.80 "HgN/A
4:50 AM55 °FOvercast.10 mph82%29.80 "HgN/A
4:20 AM55 °FOvercast.12 mph82%29.80 "HgN/A
3:50 AM55 °FOvercast.10 mph82%29.80 "HgN/A
3:20 AM55 °FMostly cloudy.12 mph82%29.80 "HgN/A
2:50 AM57 °FMostly cloudy.12 mph77%29.80 "HgN/A
2:20 AM57 °FMostly cloudy.10 mph82%29.77 "HgN/A
1:50 AM55 °FMostly cloudy.8 mph88%29.77 "HgN/A
1:20 AM55 °FSprinkles. Mostly cloudy.13 mph88%29.77 "Hg4 mi
12:20 AM57 °FRain showers. Mostly cloudy.10 mph77%29.77 "Hg2 mi
Weather by CustomWeather, © 2015

See weather overviewHow to use our weather pages